FCYISA WADL-WBSB

Flight info

Callsign FCYISA
Flight time 2h 4m
Altitude 34000
Route AGUNG DCT DOBMA M522 ELANG/N0465F350 R223 BRU
Aircraft B738/M-SDE2E3FGHIRWXY/LB1

Departure

Time 2026-04-18 04:40
Airport Lombok International Airport (WADL)

Arrival

Time 2026-04-18 06:44
Airport Brunei International Airport (WBSB)
Time Latitude Longitude Altitude Speed Heading
2026-04-18 04:10 -8.75975 116.27251 302 ft 0 kts 223°
2026-04-18 04:12 -8.75972 116.27255 302 ft 0 kts 43°
2026-04-18 04:34 -8.75971 116.27255 301 ft 2 kts 43°
2026-04-18 04:34 -8.75902 116.27299 301 ft 20 kts 28°
2026-04-18 04:34 -8.75770 116.27295 301 ft 20 kts 321°
2026-04-18 04:35 -8.75679 116.27190 301 ft 20 kts 308°
2026-04-18 04:35 -8.75596 116.27084 300 ft 19 kts 308°
2026-04-18 04:35 -8.75514 116.26981 298 ft 18 kts 309°
2026-04-18 04:35 -8.75434 116.26883 298 ft 18 kts 309°
2026-04-18 04:36 -8.75356 116.26789 296 ft 17 kts 309°
2026-04-18 04:36 -8.75282 116.26697 295 ft 17 kts 309°
2026-04-18 04:36 -8.75211 116.26609 294 ft 16 kts 309°
2026-04-18 04:36 -8.75141 116.26524 295 ft 15 kts 312°
2026-04-18 04:37 -8.75051 116.26489 293 ft 15 kts 19°
2026-04-18 04:37 -8.75000 116.26520 292 ft 0 kts 44°
2026-04-18 04:38 -8.74999 116.26521 292 ft 1 kts 44°
2026-04-18 04:39 -8.74984 116.26607 294 ft 22 kts 110°
2026-04-18 04:39 -8.75183 116.26870 295 ft 87 kts 129°
2026-04-18 04:39 -8.75747 116.27556 305 ft 164 kts 130°
2026-04-18 04:39 -8.76575 116.28592 548 ft 210 kts 130°
2026-04-18 04:40 -8.77550 116.29768 1322 ft 228 kts 130°
2026-04-18 04:40 -8.78663 116.30977 2185 ft 241 kts 139°
2026-04-18 04:40 -8.79885 116.32110 2877 ft 228 kts 136°
2026-04-18 04:40 -8.80887 116.33325 3457 ft 223 kts 124°
2026-04-18 04:41 -8.81749 116.34605 3963 ft 217 kts 126°
2026-04-18 04:41 -8.82748 116.35744 4473 ft 219 kts 150°
2026-04-18 04:41 -8.84193 116.36042 5001 ft 216 kts 194°
2026-04-18 04:41 -8.85438 116.35264 5503 ft 216 kts 234°
2026-04-18 04:42 -8.85998 116.33869 5982 ft 219 kts 265°
2026-04-18 04:42 -8.85784 116.32351 6435 ft 223 kts 295°
2026-04-18 04:42 -8.84786 116.31165 6882 ft 227 kts 330°
2026-04-18 04:42 -8.83290 116.30673 7369 ft 228 kts 347°
2026-04-18 04:43 -8.81726 116.30349 7816 ft 230 kts 347°
2026-04-18 04:43 -8.80154 116.30021 8265 ft 231 kts 347°
2026-04-18 04:43 -8.78580 116.29687 8709 ft 231 kts 347°
2026-04-18 04:43 -8.76980 116.29337 9183 ft 241 kts 344°
2026-04-18 04:44 -8.75365 116.28757 9665 ft 252 kts 336°
2026-04-18 04:44 -8.73721 116.28043 10135 ft 261 kts 335°
2026-04-18 04:44 -8.72048 116.27301 10532 ft 267 kts 335°
2026-04-18 04:44 -8.70263 116.26512 10706 ft 292 kts 336°
2026-04-18 04:45 -8.68313 116.25659 10894 ft 317 kts 336°
2026-04-18 04:45 -8.66219 116.24752 11078 ft 340 kts 336°
2026-04-18 04:45 -8.63966 116.23783 11310 ft 360 kts 336°
2026-04-18 04:45 -8.61853 116.22880 11810 ft 367 kts 336°
2026-04-18 04:46 -8.59518 116.21885 12508 ft 370 kts 336°
2026-04-18 04:46 -8.57136 116.20873 13218 ft 373 kts 336°
2026-04-18 04:46 -8.54727 116.19850 13878 ft 377 kts 336°
2026-04-18 04:46 -8.52295 116.18818 14503 ft 381 kts 336°
2026-04-18 04:47 -8.49835 116.17774 15107 ft 386 kts 336°
2026-04-18 04:47 -8.47343 116.16717 15717 ft 390 kts 336°
2026-04-18 04:47 -8.44828 116.15650 16282 ft 394 kts 336°
2026-04-18 04:47 -8.42289 116.14572 16926 ft 396 kts 336°
2026-04-18 04:48 -8.39750 116.13496 17581 ft 397 kts 336°
2026-04-18 04:48 -8.37195 116.12412 18158 ft 400 kts 336°
2026-04-18 04:48 -8.34769 116.11384 18660 ft 403 kts 336°
2026-04-18 04:48 -8.32170 116.10281 19178 ft 407 kts 336°
2026-04-18 04:49 -8.29548 116.09170 19693 ft 410 kts 336°
2026-04-18 04:49 -8.26906 116.08049 20199 ft 413 kts 336°
2026-04-18 04:49 -8.24249 116.06924 20689 ft 416 kts 336°
2026-04-18 04:49 -8.21731 116.05468 21112 ft 419 kts 319°
2026-04-18 04:50 -8.19807 116.03263 21590 ft 420 kts 302°
2026-04-18 04:50 -8.18306 116.00767 22072 ft 422 kts 300°
2026-04-18 04:50 -8.16816 115.98197 22479 ft 426 kts 300°
2026-04-18 04:50 -8.15316 115.95609 22877 ft 429 kts 300°
2026-04-18 04:51 -8.13795 115.93006 23291 ft 431 kts 300°
2026-04-18 04:51 -8.12234 115.90363 23711 ft 434 kts 301°
2026-04-18 04:51 -8.10698 115.87780 24092 ft 436 kts 301°
2026-04-18 04:51 -8.09126 115.85147 24461 ft 439 kts 301°
2026-04-18 04:52 -8.07541 115.82497 24823 ft 442 kts 301°
2026-04-18 04:52 -8.05950 115.79836 25179 ft 444 kts 301°
2026-04-18 04:52 -8.04348 115.77157 25524 ft 446 kts 301°
2026-04-18 04:52 -8.02743 115.74473 25859 ft 449 kts 301°
2026-04-18 04:53 -8.01125 115.71768 26187 ft 451 kts 301°
2026-04-18 04:53 -7.99350 115.69156 26461 ft 454 kts 312°
2026-04-18 04:53 -7.96899 115.67148 26754 ft 457 kts 329°
2026-04-18 04:53 -7.94091 115.65635 27105 ft 457 kts 332°
2026-04-18 04:54 -7.91239 115.64191 27383 ft 460 kts 333°
2026-04-18 04:54 -7.88359 115.62753 27627 ft 463 kts 333°
2026-04-18 04:54 -7.85472 115.61303 27894 ft 465 kts 333°
2026-04-18 04:54 -7.82571 115.59832 28171 ft 467 kts 333°
2026-04-18 04:55 -7.79671 115.58346 28455 ft 468 kts 332°
2026-04-18 04:55 -7.76776 115.56853 28809 ft 467 kts 332°
2026-04-18 04:55 -7.73893 115.55360 29211 ft 465 kts 332°
2026-04-18 04:56 -7.68152 115.52381 29923 ft 463 kts 332°
2026-04-18 04:56 -7.65279 115.50890 30235 ft 463 kts 332°
2026-04-18 04:56 -7.62412 115.49404 30574 ft 463 kts 332°
2026-04-18 04:56 -7.59552 115.47922 30916 ft 461 kts 332°
2026-04-18 04:57 -7.56698 115.46443 31236 ft 461 kts 332°
2026-04-18 04:57 -7.53846 115.44966 31535 ft 461 kts 332°
2026-04-18 04:57 -7.50988 115.43486 31845 ft 460 kts 332°
2026-04-18 04:57 -7.48142 115.42013 32149 ft 459 kts 332°
2026-04-18 04:58 -7.45299 115.40541 32443 ft 459 kts 332°
2026-04-18 04:58 -7.42500 115.39092 32707 ft 458 kts 332°
2026-04-18 04:58 -7.39629 115.37606 33005 ft 457 kts 332°
2026-04-18 04:58 -7.36838 115.36162 33281 ft 457 kts 332°
2026-04-18 04:59 -7.34011 115.34700 33553 ft 456 kts 332°
2026-04-18 04:59 -7.31188 115.33239 33807 ft 456 kts 332°
2026-04-18 04:59 -7.28363 115.31778 34010 ft 456 kts 332°
2026-04-18 04:59 -7.25521 115.30308 33992 ft 460 kts 332°
2026-04-18 05:00 -7.19827 115.27364 33994 ft 458 kts 332°
2026-04-18 05:00 -7.14191 115.24451 33998 ft 453 kts 332°
2026-04-18 05:01 -7.08586 115.21554 34003 ft 452 kts 332°
2026-04-18 05:01 -7.02984 115.18660 34001 ft 452 kts 332°
2026-04-18 05:02 -6.98296 115.16238 34003 ft 452 kts 332°
2026-04-18 05:02 -6.92732 115.13364 34003 ft 452 kts 332°
2026-04-18 05:03 -6.87127 115.10470 34003 ft 453 kts 332°
2026-04-18 05:03 -6.81225 115.08245 34007 ft 455 kts 348°
2026-04-18 05:04 -6.74908 115.07705 34007 ft 456 kts 357°
2026-04-18 05:04 -6.68548 115.07505 33999 ft 458 kts 358°
2026-04-18 05:05 -6.62181 115.07287 34001 ft 458 kts 357°
2026-04-18 05:05 -6.55799 115.07034 34002 ft 459 kts 357°
2026-04-18 05:06 -6.49410 115.06764 34001 ft 459 kts 357°
2026-04-18 05:06 -6.43016 115.06492 34001 ft 459 kts 357°
2026-04-18 05:07 -6.36633 115.06221 34001 ft 459 kts 357°
2026-04-18 05:07 -6.30259 115.05952 34001 ft 458 kts 357°
2026-04-18 05:08 -6.23908 115.05684 34000 ft 458 kts 357°
2026-04-18 05:08 -6.17542 115.05415 34001 ft 457 kts 357°
2026-04-18 05:09 -6.11180 115.05147 34000 ft 457 kts 357°
2026-04-18 05:09 -6.04822 115.04878 34001 ft 457 kts 357°
2026-04-18 05:10 -5.98473 115.04611 34002 ft 456 kts 357°
2026-04-18 05:10 -5.92120 115.04343 34002 ft 456 kts 357°
2026-04-18 05:11 -5.85777 115.04075 34002 ft 456 kts 357°
2026-04-18 05:11 -5.79428 115.03808 34002 ft 456 kts 357°
2026-04-18 05:12 -5.73080 115.03540 34002 ft 456 kts 357°
2026-04-18 05:12 -5.66734 115.03273 34003 ft 457 kts 357°
2026-04-18 05:13 -5.60427 115.03007 34002 ft 457 kts 357°
2026-04-18 05:13 -5.54074 115.02739 34002 ft 457 kts 357°
2026-04-18 05:14 -5.47712 115.02471 34002 ft 457 kts 357°
2026-04-18 05:14 -5.41349 115.02204 34002 ft 457 kts 357°
2026-04-18 05:15 -5.34989 115.01936 34002 ft 457 kts 357°
2026-04-18 05:15 -5.28626 115.01668 34002 ft 458 kts 357°
2026-04-18 05:16 -5.22265 115.01400 34002 ft 458 kts 357°
2026-04-18 05:16 -5.15902 115.01133 34002 ft 457 kts 357°
2026-04-18 05:17 -5.09541 115.00865 34002 ft 457 kts 357°
2026-04-18 05:17 -5.03175 115.00598 34000 ft 457 kts 357°
2026-04-18 05:18 -4.96805 115.00330 34002 ft 457 kts 357°
2026-04-18 05:18 -4.90448 115.00063 34002 ft 457 kts 357°
2026-04-18 05:19 -4.84093 114.99796 34002 ft 457 kts 357°
2026-04-18 05:19 -4.77733 114.99528 34002 ft 457 kts 357°
2026-04-18 05:20 -4.71369 114.99261 34002 ft 457 kts 357°
2026-04-18 05:20 -4.65018 114.98994 34001 ft 457 kts 357°
2026-04-18 05:21 -4.58662 114.98727 34002 ft 457 kts 357°
2026-04-18 05:21 -4.52302 114.98460 34002 ft 457 kts 357°
2026-04-18 05:22 -4.45984 114.98195 34003 ft 457 kts 357°
2026-04-18 05:22 -4.39626 114.97928 33999 ft 457 kts 357°
2026-04-18 05:23 -4.33263 114.97661 34001 ft 457 kts 357°
2026-04-18 05:23 -4.26905 114.97394 34002 ft 457 kts 357°
2026-04-18 05:24 -4.20544 114.97128 34001 ft 457 kts 357°
2026-04-18 05:24 -4.14190 114.96861 34002 ft 457 kts 357°
2026-04-18 05:25 -4.07833 114.96595 34002 ft 457 kts 357°
2026-04-18 05:25 -4.01476 114.96328 34002 ft 457 kts 357°
2026-04-18 05:26 -3.95118 114.96061 34002 ft 457 kts 357°
2026-04-18 05:26 -3.88760 114.95795 34002 ft 457 kts 357°
2026-04-18 05:27 -3.82391 114.95528 34001 ft 457 kts 357°
2026-04-18 05:27 -3.76069 114.95263 33998 ft 458 kts 357°
2026-04-18 05:28 -3.69698 114.94996 34007 ft 459 kts 357°
2026-04-18 05:28 -3.63305 114.94728 34005 ft 459 kts 357°
2026-04-18 05:29 -3.56912 114.94460 34001 ft 460 kts 357°
2026-04-18 05:29 -3.50509 114.94192 34000 ft 460 kts 357°
2026-04-18 05:30 -3.44117 114.93925 34001 ft 459 kts 357°
2026-04-18 05:30 -3.37724 114.93657 34000 ft 459 kts 357°
2026-04-18 05:31 -3.31390 114.93392 33998 ft 458 kts 357°
2026-04-18 05:31 -3.25029 114.93126 34001 ft 457 kts 357°
2026-04-18 05:32 -3.18671 114.92860 34001 ft 457 kts 357°
2026-04-18 05:32 -3.12326 114.92594 34001 ft 456 kts 357°
2026-04-18 05:33 -3.05989 114.92329 34002 ft 456 kts 357°
2026-04-18 05:33 -2.99645 114.92063 34002 ft 456 kts 357°
2026-04-18 05:34 -2.93315 114.91799 34001 ft 456 kts 357°
2026-04-18 05:34 -2.86975 114.91533 34002 ft 456 kts 357°
2026-04-18 05:35 -2.80640 114.91269 34002 ft 456 kts 357°
2026-04-18 05:35 -2.74287 114.91003 34002 ft 456 kts 357°
2026-04-18 05:36 -2.67935 114.90737 34002 ft 457 kts 357°
2026-04-18 05:36 -2.61582 114.90472 34002 ft 457 kts 357°
2026-04-18 05:37 -2.55222 114.90206 34002 ft 457 kts 357°
2026-04-18 05:37 -2.49077 114.89949 34002 ft 457 kts 357°
2026-04-18 05:38 -2.42754 114.89685 34001 ft 458 kts 357°
2026-04-18 05:38 -2.36387 114.89418 34001 ft 458 kts 357°
2026-04-18 05:39 -2.29979 114.89151 34001 ft 458 kts 357°
2026-04-18 05:39 -2.23656 114.88886 34002 ft 458 kts 357°
2026-04-18 05:40 -2.17297 114.88621 34001 ft 457 kts 357°
2026-04-18 05:40 -2.10930 114.88355 34002 ft 457 kts 357°
2026-04-18 05:41 -2.04569 114.88089 34001 ft 457 kts 357°
2026-04-18 05:41 -1.99282 114.87868 34002 ft 457 kts 357°
2026-04-18 05:42 -1.92927 114.87603 34001 ft 457 kts 357°
2026-04-18 05:42 -1.86577 114.87338 34002 ft 457 kts 357°
2026-04-18 05:43 -1.80221 114.87072 34002 ft 457 kts 357°
2026-04-18 05:43 -1.73867 114.86807 34001 ft 457 kts 357°
2026-04-18 05:44 -1.67515 114.86541 34002 ft 457 kts 357°
2026-04-18 05:44 -1.61163 114.86276 34002 ft 457 kts 357°
2026-04-18 05:45 -1.54812 114.86011 34001 ft 457 kts 357°
2026-04-18 05:45 -1.48460 114.85746 34002 ft 457 kts 357°
2026-04-18 05:46 -1.42108 114.85481 34001 ft 457 kts 357°
2026-04-18 05:46 -1.35751 114.85215 34002 ft 457 kts 357°
2026-04-18 05:47 -1.29390 114.84950 34001 ft 457 kts 357°
2026-04-18 05:47 -1.23036 114.84685 34001 ft 457 kts 357°
2026-04-18 05:48 -1.16710 114.84420 34003 ft 457 kts 357°
2026-04-18 05:48 -1.10352 114.84155 34000 ft 457 kts 357°
2026-04-18 05:49 -1.03993 114.83890 34002 ft 457 kts 357°
2026-04-18 05:49 -0.97634 114.83624 34001 ft 457 kts 357°
2026-04-18 05:50 -0.91263 114.83371 34001 ft 457 kts 358°
2026-04-18 05:50 -0.84900 114.83381 34002 ft 458 kts
2026-04-18 05:51 -0.78522 114.83496 34001 ft 458 kts
2026-04-18 05:51 -0.72155 114.83589 34000 ft 458 kts
2026-04-18 05:52 -0.65785 114.83657 34002 ft 458 kts
2026-04-18 05:52 -0.59418 114.83713 34003 ft 458 kts 360°
2026-04-18 05:53 -0.53039 114.83768 34000 ft 458 kts
2026-04-18 05:53 -0.46674 114.83823 34000 ft 458 kts
2026-04-18 05:54 -0.40300 114.83879 34000 ft 458 kts
2026-04-18 05:54 -0.33932 114.83936 34003 ft 458 kts
2026-04-18 05:55 -0.27559 114.83992 33999 ft 458 kts
2026-04-18 05:55 -0.21184 114.84049 34003 ft 458 kts
2026-04-18 05:56 -0.14810 114.84105 34003 ft 458 kts 360°
2026-04-18 05:56 -0.08475 114.84161 34000 ft 458 kts
2026-04-18 05:57 0.01101 114.84246 34002 ft 459 kts 360°
2026-04-18 05:58 0.07491 114.84302 34001 ft 459 kts
2026-04-18 05:58 0.13885 114.84359 34005 ft 460 kts
2026-04-18 05:59 0.20294 114.84415 33997 ft 460 kts
2026-04-18 05:59 0.26702 114.84472 34002 ft 461 kts
2026-04-18 06:00 0.33116 114.84529 34005 ft 461 kts
2026-04-18 06:00 0.39537 114.84585 34000 ft 461 kts
2026-04-18 06:01 0.45959 114.84642 34000 ft 461 kts
2026-04-18 06:01 0.52367 114.84699 34001 ft 460 kts
2026-04-18 06:02 0.58771 114.84755 34000 ft 460 kts
2026-04-18 06:02 0.65169 114.84812 33997 ft 460 kts
2026-04-18 06:03 0.71578 114.84869 33995 ft 461 kts
2026-04-18 06:03 0.77995 114.84925 34012 ft 462 kts
2026-04-18 06:04 0.84430 114.84982 34007 ft 462 kts
2026-04-18 06:04 0.90865 114.85039 33999 ft 462 kts
2026-04-18 06:05 0.97287 114.85096 34003 ft 461 kts
2026-04-18 06:05 1.03707 114.85153 33999 ft 461 kts
2026-04-18 06:06 1.10082 114.85209 33990 ft 461 kts
2026-04-18 06:06 1.16488 114.85266 33993 ft 461 kts
2026-04-18 06:07 1.22912 114.85322 34005 ft 461 kts
2026-04-18 06:07 1.29339 114.85380 33992 ft 462 kts
2026-04-18 06:08 1.35780 114.85436 34006 ft 463 kts
2026-04-18 06:08 1.42232 114.85493 33995 ft 464 kts
2026-04-18 06:09 1.48685 114.85550 34002 ft 464 kts
2026-04-18 06:09 1.55145 114.85608 33999 ft 464 kts
2026-04-18 06:10 1.61612 114.85665 34000 ft 465 kts
2026-04-18 06:10 1.68087 114.85722 34013 ft 465 kts
2026-04-18 06:11 1.74569 114.85779 34000 ft 465 kts
2026-04-18 06:11 1.81042 114.85837 34000 ft 465 kts
2026-04-18 06:12 1.87505 114.85894 33997 ft 463 kts
2026-04-18 06:12 1.93943 114.85951 34001 ft 462 kts
2026-04-18 06:13 2.00340 114.86008 34002 ft 461 kts
2026-04-18 06:13 2.06771 114.86065 33999 ft 461 kts
2026-04-18 06:14 2.13191 114.86121 33998 ft 461 kts
2026-04-18 06:14 2.19604 114.86178 34005 ft 461 kts
2026-04-18 06:15 2.26024 114.86235 33999 ft 462 kts
2026-04-18 06:15 2.32450 114.86292 34011 ft 462 kts
2026-04-18 06:16 2.38894 114.86349 34001 ft 463 kts
2026-04-18 06:16 2.45348 114.86406 34002 ft 464 kts
2026-04-18 06:17 2.51801 114.86463 34005 ft 464 kts
2026-04-18 06:17 2.58235 114.86520 33998 ft 465 kts
2026-04-18 06:18 2.64714 114.86577 34010 ft 465 kts
2026-04-18 06:18 2.71186 114.86635 33997 ft 465 kts
2026-04-18 06:19 2.77656 114.86692 34003 ft 464 kts
2026-04-18 06:19 2.84110 114.86750 34004 ft 463 kts
2026-04-18 06:20 2.90539 114.86806 33995 ft 461 kts
2026-04-18 06:20 2.93748 114.86835 33848 ft 463 kts
2026-04-18 06:20 2.96984 114.86863 33406 ft 464 kts
2026-04-18 06:20 3.00201 114.86892 33019 ft 460 kts
2026-04-18 06:21 3.03396 114.86920 32617 ft 459 kts
2026-04-18 06:21 3.05512 114.86939 32354 ft 460 kts
2026-04-18 06:21 3.08714 114.86968 31967 ft 460 kts
2026-04-18 06:21 3.11917 114.86996 31571 ft 461 kts 360°
2026-04-18 06:22 3.15132 114.87024 31175 ft 462 kts
2026-04-18 06:22 3.18352 114.87053 30781 ft 463 kts
2026-04-18 06:22 3.21579 114.87082 30390 ft 464 kts
2026-04-18 06:22 3.24810 114.87110 29991 ft 464 kts
2026-04-18 06:23 3.28050 114.87139 29589 ft 465 kts
2026-04-18 06:23 3.31290 114.87167 29191 ft 465 kts
2026-04-18 06:23 3.34528 114.87196 28797 ft 465 kts
2026-04-18 06:23 3.37618 114.87224 28410 ft 466 kts
2026-04-18 06:24 3.40861 114.87252 28022 ft 466 kts
2026-04-18 06:24 3.44107 114.87281 27619 ft 467 kts
2026-04-18 06:24 3.47321 114.87310 27230 ft 469 kts
2026-04-18 06:24 3.50589 114.87339 26831 ft 470 kts
2026-04-18 06:25 3.53869 114.87368 26435 ft 472 kts
2026-04-18 06:25 3.57156 114.87397 26033 ft 473 kts
2026-04-18 06:25 3.60451 114.87426 25636 ft 473 kts
2026-04-18 06:25 3.63753 114.87456 25240 ft 473 kts
2026-04-18 06:26 3.67053 114.87485 24834 ft 472 kts
2026-04-18 06:26 3.70328 114.87514 24439 ft 470 kts
2026-04-18 06:26 3.73572 114.87543 24031 ft 463 kts
2026-04-18 06:26 3.76773 114.87572 23631 ft 457 kts
2026-04-18 06:27 3.79939 114.87600 23234 ft 453 kts 360°
2026-04-18 06:27 3.83080 114.87628 22832 ft 450 kts 360°
2026-04-18 06:27 3.86200 114.87656 22433 ft 447 kts 360°
2026-04-18 06:27 3.89311 114.87683 22032 ft 445 kts 360°
2026-04-18 06:28 3.92405 114.87710 21637 ft 444 kts 360°
2026-04-18 06:28 3.95484 114.87738 21241 ft 443 kts
2026-04-18 06:28 3.98564 114.87765 20837 ft 441 kts
2026-04-18 06:28 4.01633 114.87792 20431 ft 440 kts 360°
2026-04-18 06:29 4.04696 114.87819 20042 ft 439 kts 360°
2026-04-18 06:29 4.07746 114.87846 19640 ft 437 kts 360°
2026-04-18 06:29 4.10782 114.87874 19245 ft 435 kts 360°
2026-04-18 06:29 4.13793 114.87900 18843 ft 430 kts 360°
2026-04-18 06:30 4.16762 114.87927 18433 ft 422 kts 360°
2026-04-18 06:30 4.19684 114.87953 18033 ft 418 kts 360°
2026-04-18 06:30 4.22603 114.87979 17637 ft 418 kts 360°
2026-04-18 06:30 4.25505 114.88005 17238 ft 417 kts 360°
2026-04-18 06:31 4.28369 114.88030 16843 ft 415 kts 360°
2026-04-18 06:31 4.31249 114.88056 16444 ft 413 kts 360°
2026-04-18 06:31 4.34116 114.88081 16048 ft 411 kts 360°
2026-04-18 06:31 4.36977 114.88106 15640 ft 409 kts 360°
2026-04-18 06:32 4.39815 114.88132 15242 ft 407 kts 360°
2026-04-18 06:32 4.42640 114.88157 14840 ft 404 kts 360°
2026-04-18 06:32 4.45447 114.88182 14446 ft 402 kts 360°
2026-04-18 06:32 4.48239 114.88206 14041 ft 400 kts 360°
2026-04-18 06:33 4.51014 114.88231 13643 ft 397 kts 360°
2026-04-18 06:33 4.53774 114.88256 13241 ft 394 kts 360°
2026-04-18 06:33 4.56504 114.88280 12842 ft 391 kts 360°
2026-04-18 06:33 4.59220 114.88281 12439 ft 389 kts 356°
2026-04-18 06:34 4.61821 114.87660 12011 ft 385 kts 334°
2026-04-18 06:34 4.63990 114.86126 11631 ft 381 kts 314°
2026-04-18 06:34 4.65522 114.84022 11237 ft 378 kts 296°
2026-04-18 06:34 4.66349 114.81538 11049 ft 376 kts 283°
2026-04-18 06:35 4.67329 114.79121 10991 ft 377 kts 306°
2026-04-18 06:35 4.69273 114.77393 11009 ft 377 kts 332°
2026-04-18 06:35 4.71785 114.76695 11009 ft 379 kts 357°
2026-04-18 06:35 4.74339 114.77144 10928 ft 369 kts 22°
2026-04-18 06:36 4.76602 114.78304 10613 ft 360 kts 25°
2026-04-18 06:36 4.78970 114.78916 10245 ft 350 kts 358°
2026-04-18 06:36 4.81276 114.78340 9928 ft 340 kts 333°
2026-04-18 06:36 4.83434 114.77458 9586 ft 333 kts 349°
2026-04-18 06:37 4.85717 114.77188 9295 ft 326 kts 348°
2026-04-18 06:37 4.87782 114.76348 8959 ft 320 kts 324°
2026-04-18 06:37 4.89303 114.74772 8626 ft 313 kts 301°
2026-04-18 06:37 4.90032 114.72746 8295 ft 308 kts 276°
2026-04-18 06:38 4.89857 114.70638 7971 ft 304 kts 252°
2026-04-18 06:38 4.88825 114.68820 7645 ft 301 kts 227°
2026-04-18 06:38 4.87141 114.67618 7322 ft 298 kts 205°
2026-04-18 06:38 4.85222 114.66864 7014 ft 295 kts 200°
2026-04-18 06:39 4.83288 114.66185 6682 ft 293 kts 200°
2026-04-18 06:39 4.81325 114.65770 6513 ft 286 kts 179°
2026-04-18 06:39 4.79471 114.66215 6490 ft 274 kts 152°
2026-04-18 06:39 4.78064 114.67428 6384 ft 266 kts 124°
2026-04-18 06:40 4.77405 114.69125 6184 ft 261 kts 95°
2026-04-18 06:40 4.77637 114.70894 5993 ft 255 kts 68°
2026-04-18 06:40 4.78370 114.72513 5680 ft 256 kts 63°
2026-04-18 06:40 4.79175 114.74125 5271 ft 261 kts 63°
2026-04-18 06:41 4.80006 114.75767 4853 ft 266 kts 63°
2026-04-18 06:41 4.80863 114.77451 4291 ft 276 kts 62°
2026-04-18 06:41 4.81728 114.79149 4074 ft 271 kts 62°
2026-04-18 06:41 4.82610 114.80877 3330 ft 283 kts 62°
2026-04-18 06:42 4.83513 114.82643 2640 ft 287 kts 62°
2026-04-18 06:42 4.84419 114.84417 2189 ft 281 kts 62°
2026-04-18 06:42 4.85276 114.86093 2032 ft 265 kts 62°
2026-04-18 06:42 4.86188 114.87670 1710 ft 256 kts 48°
2026-04-18 06:43 4.87609 114.88641 1385 ft 248 kts 25°
2026-04-18 06:43 4.89103 114.89528 990 ft 247 kts 34°
2026-04-18 06:43 4.90491 114.90473 696 ft 239 kts 31°
2026-04-18 06:43 4.91899 114.91332 318 ft 237 kts 31°
2026-04-18 06:44 4.93297 114.92152 48 ft 227 kts 30°
2026-04-18 06:44 4.94366 114.92799 42 ft 95 kts 30°
2026-04-18 06:44 4.94788 114.93050 48 ft 23 kts 36°
2026-04-18 06:44 4.94899 114.93164 51 ft 23 kts 87°
2026-04-18 06:45 4.94800 114.93274 51 ft 21 kts 131°
2026-04-18 06:45 4.94741 114.93350 52 ft 0 kts 126°